Wind_Speed
15 15 14 14 15 16 18 17 16 14 14 14 13 12 12 11 9 7 6 5 4 2 1 1 1 2 2 3 3 2 2 3 3 4 4 4 4 4 4 3 2 2 2 2 1 1 1 1 1
14 15 15 14 15 17 18 17 15 14 14 14 13 12 12 10 9 8 6 5 4 2 1 0 1 2 3 3 3 3 3 3 3 4 4 4 4 4 4 3 3 2 2 2 1 1 0 0 1
12 13 14 15 16 16 17 16 16 16 15 14 13 13 12 10 10 9 7 5 4 3 1 0 2 3 4 4 4 4 4 4 4 4 5 4 4 4 4 4 3 3 2 2 2 1 0 0 1
10 11 12 14 16 16 16 15 15 15 14 14 14 14 13 12 11 10 9 7 6 4 2 1 2 3 4 5 5 5 5 5 5 4 5 4 4 4 4 4 3 3 3 3 2 1 1 1 1
8 8 9 12 15 15 15 14 14 14 15 15 14 14 14 13 12 11 10 9 7 5 3 2 3 4 4 5 6 6 6 6 5 4 4 4 4 4 4 4 4 3 3 3 2 1 1 1 1
5 5 8 11 13 13 12 13 15 15 15 14 14 14 13 12 12 11 11 10 8 6 4 3 4 5 6 6 6 6 6 6 5 5 5 5 4 4 4 4 4 4 3 3 2 1 1 1 1
6 6 8 10 11 12 11 13 14 15 15 14 14 15 13 11 11 12 11 10 9 7 6 4 4 5 6 6 6 7 7 6 6 5 5 5 4 3 3 4 4 4 3 3 2 1 1 1 1
5 5 7 9 10 10 11 12 14 14 14 15 14 15 13 11 11 12 11 10 9 8 6 5 4 5 5 6 6 7 7 7 6 6 6 5 4 4 4 4 4 3 3 3 2 1 1 1 1
4 5 5 7 8 9 9 11 13 14 15 15 15 15 14 12 12 12 12 11 9 8 7 5 4 4 6 6 6 7 8 8 7 7 7 6 5 5 4 4 4 3 3 3 2 1 1 1 0
4 3 4 5 6 7 8 10 13 14 15 15 15 15 14 13 12 11 12 11 9 9 8 6 5 5 5 7 7 8 9 9 9 8 8 7 6 5 5 4 4 3 3 2 2 1 1 1 1
4 2 1 2 4 5 7 9 11 13 14 14 14 15 15 14 12 11 11 11 11 10 9 8 7 6 6 7 8 9 9 9 9 9 9 8 7 6 5 5 4 4 3 2 2 1 1 1 1
7 5 4 2 3 4 6 8 11 13 13 14 14 14 15 14 13 12 11 11 12 11 10 9 8 6 6 7 8 9 9 9 10 10 10 9 8 6 6 6 5 4 3 3 2 2 1 1 1
8 7 6 4 4 5 7 9 10 12 13 14 14 13 14 14 14 13 13 12 13 11 10 8 8 6 6 7 8 9 10 10 10 10 10 9 8 7 7 6 5 4 3 2 2 2 1 1 2
8 8 6 5 5 6 7 9 11 12 13 15 17 15 14 14 14 14 14 13 13 13 11 9 7 6 6 7 7 9 10 10 10 10 9 8 8 8 7 7 6 4 3 3 2 2 1 2 2
6 5 4 4 4 5 7 8 11 14 15 16 18 18 14 14 14 15 16 16 15 14 12 10 8 7 6 6 7 8 10 10 10 10 9 9 8 8 8 7 6 5 4 3 3 3 2 2 3
5 4 3 2 3 5 7 9 12 15 16 17 19 18 15 14 14 15 16 16 16 14 12 10 7 6 5 5 6 7 9 10 10 10 10 10 9 9 9 8 7 6 5 4 4 3 3 3 3
6 5 4 3 5 6 8 10 13 16 17 18 19 17 16 15 15 16 16 16 16 14 11 7 4 4 5 5 5 8 9 10 11 11 11 10 10 10 10 9 8 7 6 5 5 4 3 3 3
9 7 6 5 6 7 9 11 13 15 16 18 19 18 17 17 17 16 16 16 15 12 10 6 4 3 4 4 5 7 9 10 11 12 11 11 11 11 10 9 8 8 7 6 6 5 4 4 4
11 8 6 6 7 9 10 12 15 15 16 18 19 20 17 18 18 17 16 15 13 10 7 6 3 3 3 3 4 6 8 9 11 11 12 12 12 12 11 11 10 8 8 7 6 6 5 5 4
12 10 8 6 8 11 12 14 15 15 15 17 18 18 17 18 18 17 15 14 12 10 7 4 2 2 2 3 4 5 7 8 9 11 11 12 12 12 12 12 11 9 8 7 7 7 7 6 6
13 12 10 10 11 13 15 15 15 14 15 14 15 17 18 18 17 16 15 13 11 9 7 4 1 1 2 4 4 5 6 8 9 10 11 12 12 12 12 12 12 11 9 9 8 8 8 7 7
13 12 13 13 14 15 16 16 14 15 15 14 15 16 17 17 17 15 14 12 9 8 5 2 0 1 2 4 4 6 6 8 9 10 12 12 13 12 12 12 12 11 11 10 9 9 9 9 8
14 14 15 15 16 15 15 16 14 15 15 14 15 15 16 16 16 14 12 9 7 6 4 3 1 1 2 3 5 6 7 8 9 10 11 12 12 12 13 13 13 12 11 11 11 10 10 10 10
15 16 17 17 16 14 14 15 14 16 15 14 13 14 15 15 14 13 10 8 6 5 4 3 2 1 2 3 4 5 7 8 9 10 11 12 12 12 14 14 14 13 13 12 12 11 11 11 11
16 17 17 17 15 12 13 15 14 15 13 13 12 13 15 14 12 11 9 8 6 4 3 3 1 0 1 2 3 5 5 7 8 10 12 12 12 13 14 14 14 14 14 13 13 13 13 13 13
16 17 17 16 14 13 13 13 13 13 12 11 11 12 14 13 10 9 9 7 6 4 3 2 1 1 1 2 3 4 5 6 8 10 11 12 12 12 13 14 14 14 14 14 14 14 14 14 14
16 16 17 17 16 15 14 14 12 11 11 10 10 12 13 11 10 10 8 6 5 4 3 3 2 2 2 2 2 3 4 5 7 9 10 11 11 12 13 14 14 15 14 14 14 15 15 15 15
16 16 18 19 18 16 15 13 12 12 13 11 12 11 10 10 10 10 8 7 6 4 3 4 3 3 2 2 3 3 4 4 6 7 8 10 11 12 13 14 15 15 15 15 15 15 16 16 16
17 16 18 20 20 18 17 15 15 15 14 13 14 12 10 9 9 9 8 6 5 5 4 4 4 3 2 3 3 4 4 5 6 6 7 8 10 12 13 14 14 14 15 16 17 18 17 17 17
19 17 17 20 20 20 21 18 17 16 15 14 13 12 11 9 9 9 8 7 6 6 5 5 5 4 3 4 4 4 5 6 6 7 8 9 10 11 13 14 14 15 16 17 18 18 19 19 19
Wind_Direction
98 93 87 81 71 65 58 52 48 45 44 40 33 31 31 33 31 28 29 30 33 44 70 115 169 203 209 214 216 232 260 273 294 310 311 314 320 319 317 316 324 330 326 329 339 2 37 76 100
96 92 87 82 73 63 53 46 43 40 38 37 33 33 32 33 32 30 28 24 23 24 17 183 212 225 229 227 229 245 264 268 279 296 308 307 305 305 305 303 310 315 311 312 315 328 14 116 126
96 93 89 80 72 65 53 42 39 33 31 30 30 30 30 34 31 26 28 25 21 22 10 265 224 229 234 234 234 240 253 259 264 282 297 300 299 301 301 298 300 303 298 300 307 306 290 182 143
95 97 86 77 69 60 51 39 37 30 24 24 26 25 26 31 29 22 20 22 18 11 355 288 245 234 237 237 240 244 249 251 256 270 282 285 280 290 295 292 294 294 295 301 308 312 286 182 164
95 93 87 76 66 57 45 34 27 22 19 19 19 18 24 27 27 23 18 18 13 1 334 282 252 247 246 242 244 242 247 248 251 259 268 273 278 283 290 287 289 292 293 298 296 303 272 206 182
99 91 86 77 67 59 44 24 13 10 12 11 12 13 15 22 22 20 18 12 4 353 334 296 264 252 251 245 241 238 236 236 242 248 256 262 271 284 289 289 288 285 286 288 283 274 262 222 186
105 106 85 76 66 52 33 14 2 3 6 7 5 4 4 15 18 15 12 10 4 357 342 322 283 260 248 245 238 234 231 230 238 242 247 256 263 273 281 286 280 282 286 282 271 253 236 220 205
112 95 79 70 64 47 23 360 350 356 4 4 1 357 358 7 13 6 2 2 360 352 344 321 294 266 247 239 234 231 230 229 232 235 240 248 252 255 263 268 271 278 283 281 275 250 225 203 193
136 91 67 59 51 41 13 346 342 348 353 356 353 352 352 357 3 359 353 353 354 346 337 326 299 275 246 235 233 232 230 230 230 230 235 237 241 246 250 258 262 265 275 276 275 260 202 179 199
160 115 61 45 30 22 358 335 337 340 345 349 346 346 345 349 355 356 352 347 348 342 332 323 305 281 256 241 232 229 228 226 225 226 231 232 240 246 242 250 251 257 268 269 263 249 225 163 188
210 196 158 22 3 353 338 324 327 333 335 340 341 340 340 346 350 352 349 347 342 335 330 321 310 285 261 250 236 226 224 223 222 224 227 228 232 239 237 239 241 242 250 254 244 227 218 196 188
233 229 239 277 305 319 318 321 319 325 327 334 339 340 340 342 344 344 346 347 340 331 325 316 307 290 262 248 241 227 221 219 221 223 227 227 229 235 230 232 231 229 241 248 246 227 201 195 186
243 242 240 258 280 293 305 308 309 318 326 332 335 337 336 336 337 341 344 343 340 332 324 315 305 294 266 254 242 227 221 220 219 219 223 227 224 224 221 220 217 222 229 237 245 236 219 193 174
253 250 250 265 270 286 300 304 313 324 327 332 334 335 335 335 336 340 342 341 338 333 324 314 301 285 271 251 236 223 216 212 212 215 221 220 219 217 214 213 211 209 213 221 221 210 196 164 159
252 251 259 288 297 296 301 309 315 322 326 330 333 334 332 337 336 337 341 340 337 335 324 313 298 280 262 247 239 223 209 208 207 211 213 210 210 208 205 210 206 200 200 204 199 191 178 163 158
234 231 234 297 313 308 310 318 320 321 326 329 333 333 332 336 339 336 338 338 337 336 328 316 292 259 256 249 239 219 203 204 207 206 204 205 206 203 201 204 199 196 196 195 194 190 183 165 158
226 234 246 287 312 308 310 316 317 320 325 329 331 334 339 339 338 337 337 338 341 341 338 322 290 266 273 258 226 213 200 203 204 202 202 203 202 201 198 199 198 197 197 197 193 188 176 166 165
243 250 258 280 299 301 306 309 309 313 318 327 332 331 336 343 341 337 337 339 340 341 342 330 294 285 279 252 217 204 202 202 202 204 204 206 205 203 199 198 201 201 201 201 196 194 191 182 179
248 247 256 269 283 288 293 299 301 307 312 323 331 334 338 344 344 341 340 340 338 339 342 335 285 271 258 243 210 198 197 199 201 204 203 206 206 205 203 203 205 206 206 207 205 204 202 200 198
248 249 243 246 268 279 287 289 292 300 310 321 328 333 338 340 340 340 341 341 339 336 334 330 283 271 232 215 202 198 197 199 202 203 203 206 207 207 207 208 208 209 211 212 212 216 217 215 212
245 250 238 236 251 268 277 283 288 292 304 314 326 332 336 338 337 336 337 338 337 339 338 337 296 232 227 210 204 202 203 206 207 205 207 207 206 205 208 211 211 214 216 217 217 219 223 224 225
242 242 235 238 246 257 270 278 281 287 296 306 321 329 332 336 337 335 335 336 340 345 348 6 335 236 219 215 212 214 216 212 211 211 211 212 210 211 211 211 212 215 217 220 223 224 225 229 232
241 239 240 241 247 253 262 272 277 283 289 302 319 327 330 334 334 332 334 337 344 357 5 18 11 240 230 230 226 224 224 219 217 215 212 211 213 215 217 218 220 219 222 227 232 233 231 234 238
239 242 244 247 251 255 262 268 274 283 286 299 316 325 328 332 331 330 332 338 346 354 0 352 332 266 240 238 230 223 223 222 219 216 217 215 215 219 221 224 226 226 232 237 239 239 237 239 242
240 245 247 247 253 256 260 266 277 285 288 296 311 321 326 330 332 332 335 337 342 348 351 346 324 282 231 229 234 232 231 226 223 222 221 221 221 221 224 228 230 233 238 240 242 242 243 245 247
242 246 248 250 250 247 255 269 281 283 286 291 308 323 327 327 329 331 334 341 347 348 353 354 343 323 282 232 241 237 240 236 233 226 223 223 226 229 229 230 233 238 241 243 244 245 246 248 249
238 242 246 247 248 250 257 269 279 285 288 294 304 317 324 325 324 329 336 336 340 348 351 344 341 329 302 262 258 264 256 241 235 230 227 226 227 231 232 234 237 241 244 245 247 249 250 252 254
233 238 241 243 247 253 258 262 275 283 289 296 305 314 319 321 323 326 325 323 322 330 340 339 334 314 296 285 263 257 260 243 233 228 228 228 229 233 235 238 243 245 247 248 250 252 253 255 258
230 235 240 244 245 247 253 258 268 281 291 300 308 307 317 320 327 322 322 320 319 322 325 335 333 320 283 272 275 266 257 248 242 237 238 239 237 238 237 239 244 248 250 251 253 253 256 258 261
230 232 240 244 244 247 251 255 263 276 287 295 301 301 306 314 323 317 316 319 317 318 313 316 324 312 295 280 281 278 273 263 260 255 249 247 244 243 242 244 247 252 255 256 256 257 261 263 263
Height
5905 5905 5905 5906 5906 5904 5902 5902 5902 5902 5901 5901 5900 5899 5898 5898 5897 5898 5896 5894 5894 5894 5894 5894 5895 5895 5896 5897 5897 5898 5899 5900 5900 5900 5900 5900 5900 5900 5900 5900 5899 5899 5898 5898 5897 5897 5897 5896 5896
5906 5907 5908 5907 5906 5904 5904 5903 5903 5903 5903 5902 5901 5900 5899 5898 5897 5896 5895 5894 5894 5894 5894 5894 5895 5896 5896 5897 5898 5898 5899 5900 5900 5900 5901 5901 5901 5901 5901 5900 5900 5899 5899 5898 5898 5897 5897 5897 5896
5908 5908 5909 5908 5906 5905 5905 5904 5904 5903 5903 5903 5902 5901 5901 5899 5897 5896 5895 5894 5894 5894 5894 5894 5895 5895 5896 5897 5897 5898 5899 5899 5900 5900 5901 5901 5901 5901 5901 5901 5900 5900 5899 5899 5898 5898 5897 5897 5896
5910 5910 5910 5909 5907 5907 5906 5906 5905 5905 5905 5904 5903 5902 5901 5900 5897 5896 5895 5894 5894 5894 5894 5894 5894 5895 5896 5896 5897 5898 5898 5899 5900 5900 5901 5901 5901 5901 5901 5901 5900 5900 5899 5899 5898 5898 5897 5897 5896
5912 5912 5911 5909 5908 5908 5907 5907 5907 5907 5907 5905 5904 5903 5901 5900 5898 5896 5895 5894 5894 5894 5894 5894 5894 5894 5895 5895 5896 5897 5898 5898 5899 5900 5901 5901 5901 5901 5901 5901 5900 5900 5899 5899 5898 5898 5898 5897 5897
5913 5913 5912 5910 5909 5909 5908 5908 5908 5908 5907 5906 5905 5903 5902 5900 5898 5896 5895 5894 5894 5893 5893 5893 5893 5893 5894 5894 5895 5896 5896 5897 5898 5899 5900 5901 5901 5901 5901 5901 5900 5900 5899 5899 5898 5898 5898 5898 5897
5915 5914 5913 5911 5910 5910 5909 5910 5910 5909 5908 5907 5905 5903 5902 5901 5898 5897 5895 5894 5893 5893 5892 5892 5892 5892 5892 5893 5894 5894 5895 5896 5897 5898 5899 5900 5900 5901 5901 5900 5900 5900 5899 5899 5899 5898 5898 5898 5898
5915 5915 5913 5912 5911 5911 5911 5911 5910 5909 5908 5907 5905 5903 5902 5901 5899 5897 5896 5894 5893 5892 5891 5891 5890 5891 5891 5892 5892 5893 5894 5895 5896 5897 5898 5899 5899 5900 5900 5900 5900 5899 5899 5899 5899 5899 5898 5898 5898
5914 5915 5913 5912 5912 5911 5911 5911 5911 5910 5909 5907 5906 5904 5902 5900 5898 5897 5895 5893 5892 5891 5890 5889 5889 5889 5890 5890 5891 5892 5893 5894 5895 5896 5897 5897 5898 5899 5899 5899 5899 5899 5899 5899 5899 5899 5899 5899 5898
5914 5914 5913 5913 5912 5912 5912 5912 5911 5910 5909 5907 5906 5904 5902 5900 5898 5896 5895 5892 5891 5890 5889 5888 5888 5888 5888 5889 5889 5890 5891 5892 5893 5894 5895 5896 5897 5898 5898 5899 5899 5899 5899 5899 5899 5899 5899 5899 5898
5914 5913 5914 5913 5912 5912 5912 5912 5911 5910 5909 5908 5906 5904 5902 5899 5898 5896 5894 5892 5890 5889 5888 5887 5886 5886 5886 5886 5887 5888 5889 5890 5891 5893 5894 5895 5896 5897 5898 5898 5898 5898 5898 5899 5899 5899 5899 5899 5898
5913 5913 5913 5912 5912 5912 5912 5912 5911 5910 5909 5908 5905 5903 5900 5898 5897 5895 5893 5891 5889 5887 5885 5884 5884 5883 5884 5884 5885 5886 5887 5888 5889 5891 5892 5893 5895 5896 5897 5897 5898 5898 5898 5898 5898 5898 5899 5898 5898
5913 5912 5912 5911 5911 5911 5911 5911 5910 5909 5908 5907 5904 5902 5899 5896 5895 5893 5892 5889 5887 5885 5883 5882 5881 5881 5881 5882 5882 5883 5885 5886 5888 5889 5891 5892 5894 5895 5896 5897 5897 5897 5898 5898 5898 5898 5898 5898 5898
5912 5911 5911 5911 5911 5910 5910 5909 5909 5908 5907 5905 5903 5900 5898 5895 5892 5891 5890 5887 5885 5883 5880 5879 5879 5879 5879 5879 5880 5881 5883 5885 5886 5888 5889 5891 5892 5893 5895 5896 5896 5897 5897 5897 5897 5898 5898 5898 5898
5911 5911 5911 5911 5910 5910 5909 5908 5907 5906 5905 5904 5902 5899 5896 5893 5890 5888 5887 5885 5882 5880 5877 5876 5876 5876 5876 5877 5878 5879 5881 5883 5885 5886 5888 5889 5891 5892 5894 5895 5896 5896 5897 5897 5897 5898 5898 5898 5898
5911 5911 5910 5910 5909 5909 5909 5907 5906 5904 5903 5902 5900 5897 5894 5891 5889 5887 5885 5882 5879 5877 5875 5874 5873 5873 5875 5876 5876 5877 5879 5881 5883 5885 5886 5888 5890 5891 5893 5894 5895 5896 5896 5897 5897 5898 5898 5898 5898
5909 5909 5908 5908 5908 5907 5907 5906 5905 5903 5902 5901 5899 5896 5893 5891 5888 5886 5883 5880 5877 5874 5873 5872 5872 5872 5873 5874 5874 5875 5877 5880 5882 5884 5885 5887 5888 5890 5892 5893 5894 5895 5896 5896 5897 5898 5898 5898 5898
5906 5906 5906 5906 5906 5905 5905 5904 5903 5903 5901 5899 5897 5894 5893 5890 5887 5884 5882 5879 5875 5873 5871 5870 5871 5871 5872 5873 5874 5874 5876 5878 5880 5882 5884 5885 5887 5889 5890 5892 5893 5894 5895 5896 5896 5897 5897 5898 5898
5903 5903 5904 5904 5903 5903 5902 5902 5902 5901 5899 5898 5896 5893 5890 5888 5886 5883 5880 5877 5874 5872 5871 5870 5870 5870 5870 5871 5873 5874 5875 5876 5878 5880 5882 5884 5885 5887 5889 5890 5892 5893 5894 5895 5896 5896 5897 5897 5898
5901 5901 5902 5902 5902 5901 5900 5900 5900 5898 5898 5896 5894 5892 5889 5887 5884 5882 5879 5876 5873 5872 5870 5869 5869 5869 5870 5871 5872 5873 5874 5876 5877 5879 5880 5882 5884 5885 5887 5889 5890 5892 5893 5893 5894 5895 5896 5897 5897
5898 5899 5900 5900 5900 5899 5898 5898 5897 5897 5895 5895 5893 5891 5888 5886 5883 5881 5879 5876 5873 5871 5870 5869 5869 5869 5869 5870 5871 5872 5874 5875 5876 5877 5879 5881 5882 5884 5885 5887 5888 5890 5891 5892 5893 5894 5895 5895 5896
5894 5895 5896 5897 5897 5897 5897 5896 5895 5894 5893 5892 5891 5889 5887 5885 5883 5880 5878 5875 5872 5871 5869 5869 5868 5869 5869 5870 5871 5872 5873 5874 5875 5876 5877 5879 5881 5882 5884 5885 5887 5888 5889 5890 5891 5892 5893 5894 5895
5891 5892 5892 5893 5893 5894 5894 5893 5893 5892 5891 5890 5890 5888 5886 5883 5881 5879 5876 5874 5872 5870 5869 5868 5868 5868 5869 5869 5870 5871 5872 5873 5874 5874 5876 5877 5879 5881 5882 5883 5885 5886 5887 5888 5889 5890 5891 5892 5893
5887 5888 5889 5889 5890 5891 5891 5890 5890 5888 5888 5888 5887 5886 5884 5882 5880 5877 5875 5873 5871 5870 5869 5869 5868 5868 5868 5869 5869 5870 5870 5871 5872 5874 5875 5876 5877 5879 5880 5881 5883 5884 5885 5886 5887 5888 5889 5890 5890
5883 5884 5885 5886 5886 5888 5887 5886 5888 5886 5886 5886 5885 5884 5883 5880 5878 5876 5874 5872 5871 5869 5869 5868 5868 5868 5868 5868 5868 5869 5869 5870 5871 5872 5873 5874 5876 5877 5878 5879 5881 5882 5883 5884 5885 5885 5886 5887 5887
5879 5880 5882 5883 5883 5884 5884 5883 5885 5883 5883 5883 5883 5881 5880 5879 5877 5875 5874 5872 5870 5869 5868 5867 5867 5867 5867 5867 5867 5867 5868 5868 5869 5870 5871 5873 5874 5875 5876 5877 5878 5879 5880 5881 5882 5882 5883 5884 5884
5875 5876 5878 5879 5879 5880 5880 5881 5880 5880 5880 5880 5880 5879 5877 5876 5875 5874 5872 5871 5870 5868 5867 5866 5866 5866 5865 5865 5865 5866 5866 5867 5867 5868 5869 5870 5871 5873 5873 5874 5875 5876 5877 5877 5878 5879 5880 5880 5880
5871 5872 5873 5874 5875 5876 5877 5877 5878 5877 5877 5877 5877 5876 5875 5875 5874 5873 5871 5870 5869 5867 5867 5866 5865 5864 5864 5864 5864 5865 5865 5865 5865 5866 5867 5868 5869 5870 5871 5872 5872 5873 5873 5874 5875 5875 5876 5876 5876
5866 5868 5869 5870 5872 5873 5873 5877 5875 5875 5875 5875 5874 5873 5874 5873 5872 5871 5869 5868 5868 5867 5866 5865 5864 5863 5863 5863 5863 5863 5863 5864 5864 5864 5865 5866 5866 5867 5868 5868 5869 5869 5870 5870 5871 5871 5871 5872 5872
5861 5863 5865 5867 5868 5869 5870 5874 5872 5872 5872 5871 5871 5871 5871 5870 5870 5869 5867 5867 5866 5866 5865 5864 5863 5862 5862 5862 5862 5862 5862 5862 5862 5862 5863 5863 5863 5864 5864 5865 5865 5865 5865 5866 5866 5867 5867 5867 5867